TimeCST,TemperatureF,Dew PointF,Humidity,Sea Level PressureIn,VisibilityMPH,Wind Direction,Wind SpeedMPH,Gust SpeedMPH,PrecipitationIn,Events,Conditions,WindDirDegrees,DateUTC
12:53 AM,30.9,23.0,72,30.26,9.0,SSW,4.6,-,N/A,,Clear,200,2012-12-14 06:53:00
1:53 AM,32.0,24.1,73,30.28,9.0,Calm,Calm,-,N/A,,Clear,0,2012-12-14 07:53:00
2:53 AM,32.0,23.0,69,30.28,10.0,Calm,Calm,-,N/A,,Clear,0,2012-12-14 08:53:00
3:53 AM,32.0,23.0,69,30.27,9.0,South,5.8,-,N/A,,Clear,170,2012-12-14 09:53:00
4:53 AM,28.9,21.9,75,30.28,9.0,SSE,5.8,-,N/A,,Clear,150,2012-12-14 10:53:00
5:53 AM,28.0,21.9,78,30.28,9.0,SSE,6.9,-,N/A,,Clear,160,2012-12-14 11:53:00
6:53 AM,28.9,21.9,75,30.28,9.0,SSE,5.8,-,N/A,,Clear,160,2012-12-14 12:53:00
7:53 AM,30.9,25.0,79,30.28,8.0,South,6.9,-,N/A,,Clear,170,2012-12-14 13:53:00
8:53 AM,37.9,27.0,65,30.30,9.0,South,4.6,-,N/A,,Clear,180,2012-12-14 14:53:00
9:53 AM,45.0,28.9,53,30.30,10.0,South,6.9,-,N/A,,Clear,180,2012-12-14 15:53:00
10:53 AM,48.9,28.9,46,30.27,10.0,SSW,8.1,-,N/A,,Clear,200,2012-12-14 16:53:00
11:53 AM,53.1,30.0,41,30.23,10.0,South,12.7,-,N/A,,Clear,190,2012-12-14 17:53:00
12:53 PM,54.0,28.9,38,30.20,10.0,SSW,12.7,-,N/A,,Clear,200,2012-12-14 18:53:00
1:53 PM,54.0,30.0,40,30.19,10.0,SSW,12.7,-,N/A,,Clear,200,2012-12-14 19:53:00
2:53 PM,53.1,30.0,41,30.18,10.0,SW,10.4,-,N/A,,Clear,220,2012-12-14 20:53:00
3:53 PM,48.9,35.1,59,30.17,10.0,SSE,8.1,-,N/A,,Clear,160,2012-12-14 21:53:00
4:53 PM,42.1,33.1,70,30.17,10.0,South,6.9,-,N/A,,Clear,180,2012-12-14 22:53:00
5:53 PM,44.1,33.1,65,30.18,10.0,SSE,4.6,-,N/A,,Clear,160,2012-12-14 23:53:00
6:53 PM,44.1,32.0,63,30.17,10.0,SSE,5.8,-,N/A,,Clear,150,2012-12-15 00:53:00
7:53 PM,41.0,33.1,73,30.14,10.0,SE,6.9,-,N/A,,Clear,130,2012-12-15 01:53:00
8:53 PM,41.0,32.0,70,30.12,10.0,SSE,6.9,-,N/A,,Clear,150,2012-12-15 02:53:00
9:53 PM,43.0,33.1,68,30.12,10.0,SE,3.5,-,N/A,,Clear,130,2012-12-15 03:53:00
10:53 PM,42.1,33.1,70,30.11,10.0,ESE,6.9,-,N/A,,Clear,110,2012-12-15 04:53:00
11:53 PM,43.0,34.0,71,30.10,10.0,SE,8.1,-,N/A,,Mostly Cloudy,140,2012-12-15 05:53:00